Simultaneous Nadir Overpasses (SNOs) Predictions

Prediction of SNOs between GOES-16 and LANDSAT-8 Satellite Orbit:

Table of predicted SNOs for the next 14.0 days since TLE Epoch: 8/29/2020
Index Date Time (GOES-16) GOES-16 Lat,Lon LANDSAT-8 Lat,Lon Distance(km) Time Diff (sec)
1 08/29/2020 15:15:24 0.02, -75.19 0.05, -75.39 22.12 80
2 08/31/2020 15:00:33 0.01, -75.19 -0.54, -72.43 313.74 80
3 09/01/2020 03:24:37 -0.02, -75.18 -0.53, -77.62 277.48 80
4 09/03/2020 03:09:47 -0.02, -75.19 0.12, -74.67 59.49 80
5 09/05/2020 02:57:36 -0.01, -75.21 0.72, -71.71 397.01 80
6 09/05/2020 15:21:32 0.02, -75.22 0.36, -76.87 187.62 80
7 09/07/2020 15:06:42 0.02, -75.24 -0.29, -73.92 150.68 80
8 09/08/2020 03:30:46 -0.03, -75.24 -0.83, -79.11 439.80 80
9 09/09/2020 14:54:31 0.02, -75.26 -0.89, -70.96 489.22 80
10 09/10/2020 03:18:35 -0.03, -75.26 -0.23, -76.15 101.17 80
